Cheboygan, MI

9:45 AM EDT on March 26, 2017 (GMT -0400)
Cheboygan

Weather History for KSLH - April, 2013

Change the Weather History Date:

Tuesday, April 30, 2013

  Actual Average (KMCD) Record (KMCD)
Temperature  
Mean Temperature 61 °F -  
Max Temperature 74 °F 52 °F 71 °F (2013)
Min Temperature 48 °F 35 °F 30 °F (2003)
Degree Days  
Heating Degree Days 4    
Growing Degree Days 11 (Base 50)    
Moisture  
Dew Point 53 °F    
Average Humidity 79    
Maximum Humidity 96    
Minimum Humidity 48    
Precipitation  
Precipitation 0.00 in - - ()
Sea Level Pressure  
Sea Level Pressure 29.85 in    
Wind  
Wind Speed 7 mph (SSE)    
Max Wind Speed 17 mph    
Max Gust Speed 25 mph    
Visibility 8 miles    
Events Rain    
Averages and records for this station are not official NWS values.
T = Trace of Precipitation, MM = Missing Value Source: NWS Daily Summary

Daily Weather History Graph

Daily Weather History Graph

Search for Another Location

Airport or City:

Trip Planner

Search our weather history database for the weather conditions in past years. The results will help you decide how hot, cold, wet, or windy it might be!

Date:

Astronomy

Apr. 30, 2013 Rise Set
Actual Time 6:27 AM EDT 8:44 PM EDT
Civil Twilight 5:54 AM EDT 9:17 PM EDT
Nautical Twilight 5:13 AM EDT 9:58 PM EDT
Astronomical Twilight 4:28 AM EDT 10:44 PM EDT
Moon 1:10 AM EDT (4/30) 10:51 AM EDT (4/30)
Length of Visible Light 15h 22m
Length of Day
14h 17m
Waning Gibbous, 70% of the Moon is Illuminated
Apr 30
Waning Gibbous
May 2
Last Quarter
May 9
New
May 18
First Quarter
May 25
Full

Hourly Weather History & Observations

Time (EDT) Temp. Dew Point Humidity Pressure Visibility Wind Dir Wind Speed Gust Speed Precip Events Conditions
12:15 AM 52.9 °F 51.4 °F 95% 29.87 in 7.0 mi SE 5.8 mph - N/A   Scattered Clouds
12:35 AM 52.9 °F 51.4 °F 95% 29.87 in 5.0 mi SSE 4.6 mph - N/A   Clear
12:55 AM 52.7 °F 51.1 °F 94% 29.87 in 5.0 mi SSE 4.6 mph - N/A   Clear
1:15 AM 52.7 °F 51.3 °F 95% 29.87 in 5.0 mi SSE 5.8 mph - N/A   Scattered Clouds
1:35 AM 52.3 °F 51.1 °F 95% 29.88 in 5.0 mi SSE 3.5 mph - N/A   Mostly Cloudy
1:55 AM 52.3 °F 50.9 °F 95% 29.88 in 5.0 mi SE 5.8 mph - N/A   Mostly Cloudy
2:15 AM 51.3 °F 50.0 °F 95% 29.88 in 4.0 mi SSE 3.5 mph - N/A   Scattered Clouds
2:35 AM 51.8 °F 50.4 °F 95% 29.88 in 4.0 mi SE 4.6 mph - N/A   Mostly Cloudy
2:55 AM 52.0 °F 50.7 °F 95% 29.87 in 5.0 mi SE 5.8 mph - N/A   Mostly Cloudy
3:15 AM 48.6 °F 46.8 °F 93% 29.87 in 2.0 mi Calm Calm - N/A   Overcast
3:35 AM 50.7 °F 49.6 °F 96% 29.88 in 5.0 mi SSE 5.8 mph - N/A   Scattered Clouds
3:55 AM 51.3 °F 50.2 °F 96% 29.87 in 5.0 mi SE 5.8 mph - N/A   Scattered Clouds
4:15 AM 51.3 °F 50.0 °F 95% 29.87 in 5.0 mi SE 6.9 mph - N/A   Scattered Clouds
4:35 AM 52.0 °F 50.9 °F 96% 29.87 in 5.0 mi SSE 4.6 mph - N/A   Mostly Cloudy
4:55 AM 52.3 °F 51.1 °F 95% 29.87 in 7.0 mi SE 5.8 mph - N/A   Mostly Cloudy
5:15 AM 51.3 °F 50.0 °F 95% 29.87 in 5.0 mi SE 4.6 mph - N/A   Scattered Clouds
5:35 AM 50.4 °F 49.1 °F 95% 29.86 in 4.0 mi SE 4.6 mph - N/A   Clear
5:55 AM 50.0 °F 48.9 °F 96% 29.86 in 4.0 mi SE 4.6 mph - N/A   Clear
6:15 AM 50.4 °F 49.1 °F 95% 29.86 in 4.0 mi SE 5.8 mph - N/A   Scattered Clouds
6:35 AM 51.1 °F 50.0 °F 96% 29.86 in 4.0 mi SE 3.5 mph - N/A   Mostly Cloudy
6:55 AM 51.8 °F 50.4 °F 95% 29.86 in 4.0 mi Calm Calm - N/A   Overcast
7:15 AM 52.5 °F 51.3 °F 95% 29.87 in 5.0 mi SE 4.6 mph - N/A   Overcast
7:35 AM 53.6 °F 52.0 °F 94% 29.87 in 7.0 mi SE 3.5 mph - N/A   Overcast
7:55 AM 54.3 °F 52.2 °F 92% 29.86 in 7.0 mi SE 6.9 mph - N/A   Mostly Cloudy
8:15 AM 55.4 °F 52.9 °F 91% 29.86 in 7.0 mi SE 5.8 mph - N/A   Overcast
8:35 AM 56.5 °F 53.6 °F 90% 29.86 in 7.0 mi SE 6.9 mph - N/A   Overcast
8:55 AM 57.7 °F 54.0 °F 87% 29.87 in 10.0 mi SE 8.1 mph - N/A   Mostly Cloudy
9:15 AM 57.7 °F 53.6 °F 86% 29.88 in 10.0 mi South 5.8 mph - N/A   Mostly Cloudy
9:35 AM 57.7 °F 53.8 °F 87% 29.90 in 7.0 mi South 4.6 mph - N/A Rain Rain
9:55 AM 57.2 °F 54.0 °F 89% 29.90 in 7.0 mi South 5.8 mph - N/A Rain Rain
10:15 AM 57.2 °F 54.5 °F 91% 29.89 in 7.0 mi SSE 8.1 mph - N/A Rain Rain
10:35 AM 56.8 °F 54.3 °F 91% 29.86 in 5.0 mi ESE 10.4 mph - N/A Rain Rain
10:55 AM 57.2 °F 55.2 °F 93% 29.84 in 5.0 mi SSW 12.7 mph 17.3 mph N/A Rain Light Rain
11:15 AM 58.1 °F 55.4 °F 91% 29.86 in 7.0 mi South 5.8 mph - N/A   Mostly Cloudy
11:35 AM 59.0 °F 56.3 °F 91% 29.86 in 10.0 mi SSE 8.1 mph - N/A   Scattered Clouds
11:55 AM 58.6 °F 55.8 °F 90% 29.86 in 7.0 mi SSE 6.9 mph - N/A   Mostly Cloudy
12:15 PM 58.6 °F 55.8 °F 90% 29.85 in 7.0 mi SSE 8.1 mph 16.1 mph N/A   Overcast
12:35 PM 59.4 °F 55.6 °F 87% 29.83 in 10.0 mi SSE 11.5 mph 20.7 mph N/A   Overcast
12:55 PM 60.4 °F 56.8 °F 88% 29.82 in 10.0 mi SSE 13.8 mph 19.6 mph N/A   Mostly Cloudy
1:15 PM 59.7 °F 56.3 °F 88% 29.84 in 7.0 mi South 10.4 mph 18.4 mph N/A Rain Light Rain
1:35 PM 61.2 °F 57.4 °F 87% 29.84 in 10.0 mi SSE 10.4 mph 17.3 mph N/A   Overcast
1:55 PM 62.4 °F 57.6 °F 84% 29.83 in 10.0 mi SSE 12.7 mph 19.6 mph N/A   Mostly Cloudy
2:15 PM 64.6 °F 57.4 °F 77% 29.83 in 10.0 mi South 9.2 mph 19.6 mph N/A   Mostly Cloudy
2:35 PM 65.3 °F 56.5 °F 73% 29.83 in 10.0 mi South 13.8 mph 19.6 mph N/A   Scattered Clouds
2:55 PM 65.5 °F 56.3 °F 72% 29.82 in 10.0 mi SSE 11.5 mph 20.7 mph N/A   Scattered Clouds
3:15 PM 68.2 °F 56.7 °F 67% 29.81 in 10.0 mi SSE 15.0 mph 23.0 mph N/A   Clear
3:35 PM 70.3 °F 56.7 °F 62% 29.81 in 10.0 mi South 13.8 mph 24.2 mph N/A   Clear
3:55 PM 72.0 °F 56.1 °F 57% 29.80 in 10.0 mi SSE 13.8 mph 23.0 mph N/A   Clear
4:15 PM 72.7 °F 55.0 °F 54% 29.79 in 10.0 mi SSE 10.4 mph 21.9 mph N/A   Clear
4:35 PM 73.6 °F 54.1 °F 50% 29.79 in 10.0 mi SSE 17.3 mph 25.3 mph N/A   Clear
4:54 PM 73.6 °F 53.6 °F 50% 29.79 in 10.0 mi South 15.0 mph 24.2 mph N/A   Clear
5:15 PM 73.9 °F 53.6 °F 49% 29.78 in 10.0 mi South 13.8 mph 23.0 mph N/A   Clear
5:35 PM 74.3 °F 53.8 °F 49% 29.79 in 10.0 mi South 11.5 mph 20.7 mph N/A   Clear
5:55 PM 74.3 °F 53.6 °F 48% 29.80 in 10.0 mi South 11.5 mph 21.9 mph N/A   Clear
6:15 PM 73.8 °F 53.8 °F 50% 29.81 in 10.0 mi South 10.4 mph 20.7 mph N/A   Clear
6:35 PM 73.8 °F 54.0 °F 50% 29.82 in 10.0 mi South 9.2 mph 17.3 mph N/A   Clear
6:55 PM 74.1 °F 54.0 °F 49% 29.83 in 10.0 mi South 10.4 mph - N/A   Clear
7:15 PM 72.9 °F 53.8 °F 51% 29.83 in 10.0 mi South 10.4 mph 18.4 mph N/A   Clear
7:35 PM 72.1 °F 54.1 °F 53% 29.83 in 10.0 mi South 9.2 mph - N/A   Clear
7:55 PM 71.4 °F 54.0 °F 54% 29.84 in 10.0 mi South 6.9 mph - N/A   Clear
8:15 PM 70.0 °F 54.0 °F 57% 29.84 in 10.0 mi South 6.9 mph - N/A   Clear
8:35 PM 68.4 °F 54.0 °F 60% 29.85 in 10.0 mi SSE 5.8 mph - N/A   Clear
8:55 PM 67.3 °F 54.1 °F 63% 29.86 in 10.0 mi SSE 5.8 mph - N/A   Clear
9:15 PM 68.0 °F 54.1 °F 61% 29.87 in 10.0 mi SSE 8.1 mph - N/A   Clear
9:34 PM 68.2 °F 54.5 °F 62% 29.88 in 10.0 mi South 9.2 mph - N/A   Clear
9:55 PM 68.9 °F 55.2 °F 62% 29.88 in 10.0 mi South 8.1 mph - N/A   Clear
10:15 PM 68.2 °F 55.4 °F 64% 29.88 in 10.0 mi South 6.9 mph - N/A   Clear
10:35 PM 67.5 °F 55.6 °F 66% 29.89 in 10.0 mi South 6.9 mph - N/A   Clear
10:55 PM 67.3 °F 55.8 °F 66% 29.89 in 10.0 mi SSE 6.9 mph - N/A   Clear
11:15 PM 65.7 °F 55.8 °F 70% 29.89 in 10.0 mi SSE 4.6 mph - N/A   Clear
11:35 PM 65.8 °F 56.1 °F 71% 29.89 in 10.0 mi SSE 5.8 mph - N/A   Clear